Regional Weather Roundup
Issued by NWS Mt. Holly, NJ

Home | Current Version | Previous Version | Text Only | Print | Product List | Glossary On
Versions: 1 2 3 4 5 6 7 8 9 10 11 12 13 14 15 16 17 18 19 20 21 22 23 24 25 26 27 28 29 30 31 32 33 34 35 36 37 38 39 40 41 42 43 44 45 46 47 48 49 50
000
ASUS41 KPHI 210511
RWRPHI

REGIONAL WEATHER ROUNDUP
NATIONAL WEATHER SERVICE MOUNT HOLLY NJ
100 AM EDT TUE APR 21 2015

NOTE:  "FAIR" INDICATES FEW OR NO CLOUDS BELOW 12,000 FEET WITH NO
SIGNIFICANT WEATHER AND/OR OBSTRUCTIONS TO VISIBILITY.

 * = STATION DOES NOT REPORT PRECIPITATION (E.G. RAIN, SNOW, ETC.)
        OR FOG.

NJZ015>026-210600-
SOUTHERN NEW JERSEY

CITY           SKY/WX    TMP DP  RH WIND       PRES   REMARKS
POMONA         CLOUDY    63  57  81 SW5       29.59R
MILLVILLE      CLOUDY    60  58  92 S3        29.57F
WRIGHTSTOWN    LGT RAIN  63  59  88 S7        29.53S
MOUNT HOLLY    RAIN      62  55  77 S3        29.55F
TRENTON        CLOUDY    65  57  75 W10G17    29.54S

$$
NJZ001>014-210600-
NORTHERN NEW JERSEY

CITY           SKY/WX    TMP DP  RH WIND       PRES   REMARKS
SUSSEX         LGT RAIN  54  53  97 NW5       29.58R
ANDOVER*         N/A     55  54  96 VRB5      29.59R
MORRISTOWN     CLOUDY    57  54  88 CALM      29.57S FOG
NEWARK         FOG       53  52  96 E7        29.58S THUNDER VSB 1/2
TETERBORO      CLOUDY    53  52  96 E7        29.56F FOG
CALDWELL       CLOUDY    54  54 100 SE5       29.58S FOG
SOMERVILLE     CLOUDY    57  54  89 NW5       29.55R FOG
ALLAIRE*       CLOUDY    61  54  77 S9G18     29.57R
TOMS RIVER*    CLOUDY    63  57  82 S7        29.59R

$$
PAZ043-044-047-054-055-060>062-066>071-210600-
EASTERN PENNSYLVANIA

CITY           SKY/WX    TMP DP  RH WIND       PRES   REMARKS
PHILADELPHIA   LGT RAIN  61  56  83 S7        29.54F
NORTH PHILA    LGT RAIN  63  55  75 VRB5      29.57S
BLUE BELL      CLOUDY    61  57  88 CALM      29.55F
DOYLESTOWN     LGT RAIN  59  55  87 W3        29.55R
QUAKERTOWN*    CLOUDY    57  57 100 NW6       29.58S
POTTSTOWN      RAIN      59  58  96 W7        29.60R
LANCASTER      HVY RAIN  57  56  96 N3        29.60R FOG
COATESVILLE    HVY RAIN  57  57 100 NW12      29.60R
READING        HVY RAIN  57  55  93 E3        29.59S FOG
ALLENTOWN      LGT RAIN  57  53  86 CALM      29.59R
MOUNT POCONO   LGT RAIN  51  49  92 VRB5      29.58F
HAZLETON       RAIN      54  52  94 CALM      29.62R
WILKES BARRE   LGT RAIN  55  52  89 MISG      29.58F

$$
DEZALL-MDZ008-012-015-019-020-210600-
DELAWARE AND EASTERN MARYLAND

CITY           SKY/WX    TMP DP  RH WIND       PRES   REMARKS
WILMINGTON     CLOUDY    60  56  86 SE3       29.55S THUNDER
DOVER          CLOUDY    61  59  94 SE6       29.53F
GEORGETOWN     CLOUDY    68  61  78 S13       29.59F
EASTON         CLOUDY    69  63  80 SW10      29.61R
PATUXENT       MOCLDY    70  58  65 SW14G25   29.58R
OCEAN CITY     CLOUDY    63  60  90 SW14      29.61F
WALLOPS ISLAND CLOUDY    64  62  93 S7        29.62F
CAMBRIDGE      CLOUDY    72  59  64 SW10G21   29.58S
SALISBURY      CLOUDY    70  61  73 S21G29    29.59S

$$
PAZ001-021-NYZ056-072-MDZ011-DCZ001-210600-
OTHER NEARBY LOCATIONS

CITY           SKY/WX    TMP DP  RH WIND       PRES   REMARKS
HARRISBURG     LGT RAIN  58  56  93 N3        29.57R
STATE COLLEGE  LGT RAIN  54  51  90 SW3       29.58R
WILLIAMSPORT   LGT RAIN  57  53  86 CALM      29.55F
BINGHAMTON     RAIN      51  50  96 SE10      29.55F FOG
NEW YORK CITY  CLOUDY    52  52 100 VRB3      29.60F FOG
BALTIMORE      CLOUDY    62  56  80 NW7       29.58R THUNDER
WASHINGTON DC  CLOUDY    66  57  72 NW10      29.60R THUNDER

$$


USA.gov is the U.S. government's official web portal to all federal, state and local government web resources and services.